Location: Santa Cristina
(46.5667°N, 11.7167°E)
Time: 03:23:48
(UTC+00:00)

MSX - Pass Details

Date: 21 April 2021
Orbit: 895 x 905 km, 98.8° (Epoch: 10 May)

Event Time Altitude Azimuth Distance (km) Brightness Sun altitude
Rises 02:51:53 0° 11° (N) 3,528 7.7 -13.7°
Reaches altitude 10° 02:54:19 10° 7° (N) 2,585 6.8 -13.3°
Maximum altitude 02:59:56 57° 291° (WNW) 1,053 4.0 -12.5°
Enters shadow 03:05:03 13° 215° (SW) 2,388 5.5 -11.8°
